TimeMST,TemperatureF,Dew PointF,Humidity,Sea Level PressureIn,VisibilityMPH,Wind Direction,Wind SpeedMPH,Gust SpeedMPH,PrecipitationIn,Events,Conditions,WindDirDegrees,DateUTC
12:15 AM,49.5,11.1,21,30.07,10.0,West,4.6,-,N/A,,Clear,270,2012-11-26 07:15:00
12:35 AM,47.1,11.1,23,30.07,10.0,Calm,Calm,-,N/A,,Clear,0,2012-11-26 07:35:00
12:55 AM,45.3,10.9,25,30.08,10.0,Calm,Calm,-,N/A,,Clear,0,2012-11-26 07:55:00
1:15 AM,46.2,10.4,23,30.08,10.0,Calm,Calm,-,N/A,,Clear,0,2012-11-26 08:15:00
1:35 AM,45.9,10.4,24,30.08,10.0,East,3.5,-,N/A,,Clear,90,2012-11-26 08:35:00
1:55 AM,45.7,10.4,24,30.08,10.0,Calm,Calm,-,N/A,,Clear,0,2012-11-26 08:55:00
2:15 AM,45.7,10.4,24,30.09,10.0,Calm,Calm,-,N/A,,Clear,0,2012-11-26 09:15:00
2:35 AM,44.2,10.4,25,30.09,10.0,South,3.5,-,N/A,,Clear,190,2012-11-26 09:35:00
2:55 AM,45.0,10.8,25,30.09,10.0,SSE,3.5,-,N/A,,Clear,150,2012-11-26 09:55:00
3:15 AM,45.5,11.1,25,30.10,10.0,Calm,Calm,-,N/A,,Clear,0,2012-11-26 10:15:00
3:35 AM,45.0,11.1,25,30.10,10.0,WNW,3.5,-,N/A,,Clear,300,2012-11-26 10:35:00
3:55 AM,44.6,10.2,25,30.10,10.0,Calm,Calm,-,N/A,,Clear,0,2012-11-26 10:55:00
4:15 AM,42.3,11.1,28,30.10,10.0,WSW,4.6,-,N/A,,Clear,240,2012-11-26 11:15:00
4:35 AM,42.3,11.8,29,30.10,10.0,SW,5.8,-,N/A,,Clear,230,2012-11-26 11:35:00
4:55 AM,43.3,12.0,28,30.11,10.0,Calm,Calm,-,N/A,,Clear,0,2012-11-26 11:55:00
5:15 AM,41.7,12.6,31,30.11,10.0,WSW,4.6,-,N/A,,Clear,240,2012-11-26 12:15:00
5:35 AM,41.5,13.1,31,30.12,10.0,West,6.9,-,N/A,,Clear,260,2012-11-26 12:35:00
5:55 AM,40.6,12.6,32,30.13,10.0,Calm,Calm,-,N/A,,Clear,0,2012-11-26 12:55:00
6:15 AM,40.1,10.8,30,30.14,10.0,Calm,Calm,-,N/A,,Clear,0,2012-11-26 13:15:00
6:35 AM,40.5,10.8,30,30.15,10.0,North,3.5,-,N/A,,Clear,10,2012-11-26 13:35:00
6:55 AM,40.5,11.1,30,30.15,10.0,Calm,Calm,-,N/A,,Clear,0,2012-11-26 13:55:00
7:15 AM,40.6,10.9,30,30.16,10.0,Calm,Calm,-,N/A,,Clear,0,2012-11-26 14:15:00
7:35 AM,40.3,11.3,31,30.17,10.0,North,3.5,-,N/A,,Clear,350,2012-11-26 14:35:00
7:55 AM,40.8,11.3,30,30.18,10.0,Calm,Calm,-,N/A,,Clear,0,2012-11-26 14:55:00
8:15 AM,41.2,11.5,30,30.19,10.0,Calm,Calm,-,N/A,,Clear,0,2012-11-26 15:15:00
8:35 AM,43.7,12.0,28,30.20,10.0,North,3.5,-,N/A,,Clear,350,2012-11-26 15:35:00
8:55 AM,44.6,12.6,27,30.20,10.0,North,5.8,-,N/A,,Clear,360,2012-11-26 15:55:00
9:15 AM,45.9,13.1,27,30.21,10.0,NNE,3.5,-,N/A,,Clear,30,2012-11-26 16:15:00
9:35 AM,46.0,12.4,26,30.22,10.0,Calm,Calm,-,N/A,,Clear,0,2012-11-26 16:35:00
9:55 AM,47.3,12.9,25,30.22,10.0,Calm,Calm,-,N/A,,Clear,0,2012-11-26 16:55:00
10:15 AM,45.3,12.0,26,30.23,10.0,Calm,Calm,-,N/A,,Clear,0,2012-11-26 17:15:00
10:35 AM,47.8,12.4,24,30.22,10.0,North,5.8,-,N/A,,Clear,350,2012-11-26 17:35:00
10:55 AM,48.9,12.2,23,30.22,10.0,ENE,8.1,-,N/A,,Clear,70,2012-11-26 17:55:00
11:15 AM,45.5,11.8,26,30.22,10.0,Calm,Calm,-,N/A,,Clear,0,2012-11-26 18:15:00
11:35 AM,46.4,11.1,24,30.22,10.0,Calm,Calm,-,N/A,,Clear,0,2012-11-26 18:35:00
11:55 AM,43.7,10.6,26,30.22,10.0,Calm,Calm,-,N/A,,Clear,0,2012-11-26 18:55:00
12:15 PM,45.0,10.8,25,30.22,10.0,Calm,Calm,-,N/A,,Clear,0,2012-11-26 19:15:00
12:35 PM,46.0,10.4,24,30.22,10.0,Calm,Calm,-,N/A,,Clear,0,2012-11-26 19:35:00
12:55 PM,47.3,10.4,23,30.22,10.0,Calm,Calm,-,N/A,,Clear,0,2012-11-26 19:55:00
1:15 PM,48.4,10.4,22,30.22,10.0,Calm,Calm,-,N/A,,Clear,0,2012-11-26 20:15:00
1:35 PM,50.5,9.7,19,30.21,10.0,Calm,Calm,-,N/A,,Clear,0,2012-11-26 20:35:00
1:55 PM,50.4,7.7,18,30.21,10.0,Calm,Calm,-,N/A,,Clear,0,2012-11-26 20:55:00
2:15 PM,51.6,6.6,16,30.21,10.0,SE,3.5,-,N/A,,Clear,130,2012-11-26 21:15:00
2:35 PM,52.2,6.3,16,30.21,10.0,Calm,Calm,-,N/A,,Clear,0,2012-11-26 21:35:00
2:55 PM,52.2,5.9,15,30.21,10.0,ESE,3.5,-,N/A,,Clear,120,2012-11-26 21:55:00
3:15 PM,53.1,5.5,15,30.21,10.0,SE,4.6,-,N/A,,Clear,140,2012-11-26 22:15:00
3:35 PM,52.9,6.1,15,30.21,10.0,SSE,6.9,-,N/A,,Clear,160,2012-11-26 22:35:00
3:55 PM,52.5,6.8,16,30.21,10.0,South,5.8,-,N/A,,Clear,170,2012-11-26 22:55:00
4:15 PM,52.0,7.7,17,30.22,10.0,South,5.8,-,N/A,,Clear,170,2012-11-26 23:15:00
4:35 PM,51.1,9.0,18,30.22,10.0,South,8.1,-,N/A,,Clear,170,2012-11-26 23:35:00
4:55 PM,50.0,10.2,20,30.22,10.0,South,5.8,-,N/A,,Clear,170,2012-11-26 23:55:00
5:15 PM,48.9,10.4,21,30.24,10.0,South,8.1,-,N/A,,Clear,190,2012-11-27 00:15:00
5:35 PM,47.8,10.8,22,30.26,10.0,SSW,8.1,-,N/A,,Clear,210,2012-11-27 00:35:00
5:55 PM,47.5,10.9,23,30.27,10.0,SSW,6.9,-,N/A,,Clear,200,2012-11-27 00:55:00
6:15 PM,46.9,11.1,24,30.27,10.0,SSW,12.7,16.1,N/A,,Clear,200,2012-11-27 01:15:00
6:35 PM,47.8,11.3,23,30.27,10.0,South,9.2,-,N/A,,Clear,180,2012-11-27 01:35:00
6:55 PM,44.1,12.2,28,30.28,10.0,South,12.7,-,N/A,,Clear,190,2012-11-27 01:55:00
7:15 PM,42.8,12.4,29,30.30,10.0,SSW,11.5,-,N/A,,Clear,210,2012-11-27 02:15:00
7:35 PM,43.7,12.7,29,30.31,10.0,SSW,12.7,-,N/A,,Clear,200,2012-11-27 02:35:00
7:55 PM,42.4,13.1,30,30.31,10.0,SSW,10.4,18.4,N/A,,Clear,200,2012-11-27 02:55:00
8:15 PM,41.0,14.2,34,30.33,10.0,South,10.4,-,N/A,,Clear,190,2012-11-27 03:15:00
8:35 PM,40.3,16.5,38,30.33,10.0,SSW,10.4,19.6,N/A,,Clear,200,2012-11-27 03:35:00
8:55 PM,39.6,17.6,41,30.33,10.0,South,8.1,-,N/A,,Clear,190,2012-11-27 03:55:00
9:15 PM,37.2,18.0,46,30.34,10.0,South,10.4,-,N/A,,Clear,170,2012-11-27 04:15:00
9:55 PM,35.1,22.1,59,30.36,10.0,South,11.5,-,N/A,,Clear,170,2012-11-27 04:55:00
10:15 PM,34.7,22.8,62,30.36,10.0,South,8.1,-,N/A,,Clear,190,2012-11-27 05:15:00
10:35 PM,33.8,22.8,64,30.36,10.0,South,6.9,-,N/A,,Clear,190,2012-11-27 05:35:00
10:55 PM,32.7,22.6,66,30.36,10.0,SSW,6.9,-,N/A,,Clear,210,2012-11-27 05:55:00
11:15 PM,32.2,22.8,68,30.37,10.0,Calm,Calm,-,N/A,,Clear,0,2012-11-27 06:15:00
11:35 PM,32.0,22.8,69,30.37,10.0,South,5.8,-,N/A,,Clear,180,2012-11-27 06:35:00
11:55 PM,32.0,23.0,69,30.37,10.0,SSW,9.2,-,N/A,,Clear,200,2012-11-27 06:55:00